Wetterdaten: Woche 05.12.16 - 11.12.16 (KW49)
Datum Zeit Temp. Aussen Temp. o. S. +5cm Feuchte Auss BlattFeu 1 Luftdruck Regen Sonnenschein Regendauer Solar Windben Empfang
05.12.2016 00:00 -0,4 C -0,4 C -3,0 C 78 % 0 lf 1025,8 hPa 0,0 l/m 0,00 h 0,00 h 0 W/m 18,7 km/h (3 Bft) 96,00 %
05.12.2016 01:00 -0,5 C -0,3 C -3,0 C 78 % 0 lf 1025,4 hPa 0,0 l/m 0,00 h 0,00 h 0 W/m 19,7 km/h (3 Bft) 94,51 %
05.12.2016 02:00 -0,8 C -0,7 C -3,3 C 79 % 0 lf 1025,4 hPa 0,0 l/m 0,00 h 0,00 h 0 W/m 15,1 km/h (3 Bft) 96,58 %
05.12.2016 03:00 -0,8 C -0,6 C -3,2 C 80 % 0 lf 1025,3 hPa 0,0 l/m 0,00 h 0,00 h 0 W/m 16,9 km/h (3 Bft) 94,38 %
05.12.2016 04:00 -0,9 C -0,8 C -3,2 C 80 % 0 lf 1025,2 hPa 0,0 l/m 0,00 h 0,00 h 0 W/m 15,5 km/h (3 Bft) 97,47 %
05.12.2016 05:00 -1,2 C -1,1 C -3,4 C 82 % 0 lf 1025,0 hPa 0,0 l/m 0,00 h 0,00 h 0 W/m 15,1 km/h (3 Bft) 96,51 %
05.12.2016 06:00 -1,4 C -1,1 C -3,6 C 83 % 0 lf 1025,0 hPa 0,0 l/m 0,00 h 0,00 h 0 W/m 15,7 km/h (3 Bft) 94,07 %
05.12.2016 07:00 -1,4 C -1,2 C -3,7 C 83 % 0 lf 1025,3 hPa 0,0 l/m 0,00 h 0,00 h 0 W/m 12,4 km/h (3 Bft) 96,37 %
05.12.2016 08:00 -1,7 C -1,5 C -3,8 C 84 % 0 lf 1025,5 hPa 0,0 l/m 0,00 h 0,00 h 13 W/m 12,0 km/h (2 Bft) 95,83 %
05.12.2016 09:00 -1,4 C -0,6 C -2,8 C 85 % 0 lf 1025,6 hPa 0,0 l/m 0,40 h 0,00 h 66 W/m 15,5 km/h (3 Bft) 96,64 %
05.12.2016 10:00 -0,2 C 1,2 C -1,4 C 84 % 0 lf 1025,9 hPa 0,0 l/m 1,00 h 0,00 h 157 W/m 18,4 km/h (3 Bft) 93,45 %
05.12.2016 11:00 1,5 C 6,0 C -0,4 C 81 % 0 lf 1025,8 hPa 0,0 l/m 1,00 h 0,00 h 222 W/m 16,4 km/h (3 Bft) 94,34 %
05.12.2016 12:00 2,4 C 5,1 C 0,6 C 79 % 0 lf 1025,7 hPa 0,0 l/m 0,97 h 0,00 h 237 W/m 14,6 km/h (3 Bft) 94,62 %
05.12.2016 13:00 3,3 C 7,6 C 1,2 C 78 % 0 lf 1025,5 hPa 0,0 l/m 1,00 h 0,00 h 201 W/m 11,1 km/h (2 Bft) 99,22 %
05.12.2016 14:00 3,9 C 5,9 C 1,5 C 76 % 0 lf 1025,3 hPa 0,0 l/m 0,90 h 0,00 h 127 W/m 11,7 km/h (2 Bft) 95,66 %
05.12.2016 15:00 3,5 C 3,8 C 0,6 C 78 % 0 lf 1025,5 hPa 0,0 l/m 0,00 h 0,00 h 45 W/m 9,3 km/h (2 Bft) 97,59 %
05.12.2016 16:00 2,7 C 2,2 C -1,7 C 79 % 0 lf 1025,6 hPa 0,0 l/m 0,00 h 0,00 h 11 W/m 6,3 km/h (2 Bft) 95,09 %
05.12.2016 17:00 1,5 C 0,6 C -3,1 C 81 % 0 lf 1025,8 hPa 0,0 l/m 0,00 h 0,00 h 5 W/m 5,6 km/h (1 Bft) 96,87 %
05.12.2016 18:00 0,6 C 0,4 C -3,5 C 84 % 0 lf 1025,7 hPa 0,0 l/m 0,00 h 0,00 h 5 W/m 6,4 km/h (2 Bft) 95,58 %
05.12.2016 19:00 0,1 C -0,4 C -3,8 C 87 % 0 lf 1025,9 hPa 0,0 l/m 0,00 h 0,00 h 5 W/m 4,6 km/h (1 Bft) 95,44 %
05.12.2016 20:00 -0,8 C -1,5 C -4,4 C 87 % 1 lf 1026,3 hPa 0,0 l/m 0,00 h 0,00 h 5 W/m 4,1 km/h (1 Bft) 96,90 %
05.12.2016 21:00 -1,2 C -1,1 C -4,3 C 89 % 2 lf 1026,8 hPa 0,0 l/m 0,00 h 0,00 h 0 W/m 5,7 km/h (1 Bft) 96,51 %
05.12.2016 22:00 -0,9 C -0,4 C -3,0 C 91 % 0 lf 1026,9 hPa 0,0 l/m 0,00 h 0,00 h 0 W/m 8,3 km/h (2 Bft) 95,88 %
05.12.2016 23:00 -0,8 C -0,6 C -2,8 C 91 % 0 lf 1027,0 hPa 0,0 l/m 0,00 h 0,00 h 0 W/m 9,4 km/h (2 Bft) 93,68 %
06.12.2016 00:00 -0,9 C -0,8 C -2,9 C 91 % 0 lf 1027,0 hPa 0,0 l/m 0,00 h 0,00 h 0 W/m 8,5 km/h (2 Bft) 97,38 %
06.12.2016 01:00 -1,1 C -1,1 C -2,8 C 91 % 0 lf 1027,2 hPa 0,0 l/m 0,00 h 0,00 h 0 W/m 10,0 km/h (2 Bft) 97,11 %
06.12.2016 02:00 -1,2 C -1,1 C -2,8 C 91 % 0 lf 1027,4 hPa 0,0 l/m 0,00 h 0,00 h 0 W/m 11,2 km/h (2 Bft) 94,73 %
06.12.2016 03:00 -1,3 C -1,1 C -3,1 C 91 % 0 lf 1027,6 hPa 0,0 l/m 0,00 h 0,00 h 0 W/m 9,9 km/h (2 Bft) 95,59 %
06.12.2016 04:00 -1,4 C -1,3 C -3,2 C 92 % 0 lf 1027,9 hPa 0,0 l/m 0,00 h 0,00 h 0 W/m 9,1 km/h (2 Bft) 95,70 %
06.12.2016 05:00 -1,6 C -1,5 C -3,4 C 92 % 0 lf 1028,0 hPa 0,0 l/m 0,00 h 0,00 h 0 W/m 7,8 km/h (2 Bft) 96,36 %
06.12.2016 06:00 -1,8 C -1,7 C -3,7 C 93 % 1 lf 1028,5 hPa 0,0 l/m 0,00 h 0,00 h 0 W/m 8,6 km/h (2 Bft) 96,57 %
06.12.2016 07:00 -2,1 C -1,8 C -3,9 C 93 % 1 lf 1028,8 hPa 0,0 l/m 0,00 h 0,00 h 0 W/m 8,7 km/h (2 Bft) 96,51 %
06.12.2016 08:00 -2,1 C -1,7 C -3,9 C 93 % 1 lf 1029,2 hPa 0,0 l/m 0,00 h 0,00 h 12 W/m 11,0 km/h (2 Bft) 93,73 %
06.12.2016 09:00 -2,0 C -1,3 C -3,1 C 94 % 0 lf 1029,7 hPa 0,0 l/m 0,27 h 0,00 h 62 W/m 10,4 km/h (2 Bft) 96,23 %
06.12.2016 10:00 -1,0 C 0,8 C -1,8 C 94 % 0 lf 1030,0 hPa 0,0 l/m 1,00 h 0,00 h 149 W/m 12,1 km/h (2 Bft) 97,72 %
06.12.2016 11:00 0,7 C 4,9 C -0,5 C 92 % 0 lf 1030,1 hPa 0,0 l/m 1,00 h 0,00 h 213 W/m 14,2 km/h (3 Bft) 96,09 %
06.12.2016 12:00 2,2 C 5,6 C 0,9 C 88 % 0 lf 1030,2 hPa 0,0 l/m 0,97 h 0,00 h 230 W/m 10,6 km/h (2 Bft) 97,35 %
06.12.2016 13:00 3,4 C 7,4 C 1,8 C 85 % 0 lf 1030,1 hPa 0,0 l/m 1,00 h 0,00 h 195 W/m 10,0 km/h (2 Bft) 91,81 %
06.12.2016 14:00 4,1 C 6,4 C 2,0 C 83 % 0 lf 1029,9 hPa 0,0 l/m 0,77 h 0,00 h 120 W/m 10,1 km/h (2 Bft) 94,88 %
06.12.2016 15:00 3,7 C 3,8 C 0,8 C 84 % 0 lf 1030,0 hPa 0,0 l/m 0,00 h 0,00 h 37 W/m 8,5 km/h (2 Bft) 95,21 %
06.12.2016 16:00 2,8 C 2,6 C -0,3 C 85 % 0 lf 1030,3 hPa 0,0 l/m 0,00 h 0,00 h 11 W/m 10,3 km/h (2 Bft) 95,80 %
06.12.2016 17:00 2,0 C 1,9 C -0,5 C 86 % 0 lf 1030,2 hPa 0,0 l/m 0,00 h 0,00 h 0 W/m 10,6 km/h (2 Bft) 96,73 %
06.12.2016 18:00 1,5 C 1,7 C -0,7 C 88 % 0 lf 1030,4 hPa 0,0 l/m 0,00 h 0,00 h 0 W/m 11,3 km/h (2 Bft) 95,76 %
06.12.2016 19:00 1,2 C 1,5 C -0,6 C 88 % 0 lf 1030,4 hPa 0,0 l/m 0,00 h 0,00 h 0 W/m 13,7 km/h (3 Bft) 96,80 %
06.12.2016 20:00 1,0 C 1,1 C -0,8 C 89 % 0 lf 1030,9 hPa 0,0 l/m 0,00 h 0,00 h 0 W/m 14,6 km/h (3 Bft) 95,30 %
06.12.2016 21:00 0,6 C 0,7 C -1,1 C 90 % 0 lf 1030,9 hPa 0,0 l/m 0,00 h 0,00 h 0 W/m 14,3 km/h (3 Bft) 96,16 %
06.12.2016 22:00 0,3 C 0,6 C -1,6 C 91 % 0 lf 1030,8 hPa 0,0 l/m 0,00 h 0,00 h 0 W/m 15,3 km/h (3 Bft) 96,44 %
06.12.2016 23:00 -0,0 C 0,1 C -1,7 C 92 % 0 lf 1030,8 hPa 0,0 l/m 0,00 h 0,00 h 0 W/m 15,8 km/h (3 Bft) 98,22 %
07.12.2016 00:00 -0,3 C 0,0 C -1,8 C 92 % 0 lf 1031,4 hPa 0,0 l/m 0,00 h 0,00 h 0 W/m 13,1 km/h (3 Bft) 92,08 %
07.12.2016 01:00 -0,6 C -0,5 C -2,0 C 92 % 0 lf 1030,9 hPa 0,0 l/m 0,00 h 0,00 h 0 W/m 17,7 km/h (3 Bft) 96,66 %
07.12.2016 02:00 -0,6 C -0,1 C -1,7 C 93 % 0 lf 1030,6 hPa 0,0 l/m 0,00 h 0,00 h 0 W/m 18,2 km/h (3 Bft) 97,83 %
07.12.2016 03:00 -0,6 C -0,5 C -2,1 C 93 % 0 lf 1030,8 hPa 0,0 l/m 0,00 h 0,00 h 0 W/m 17,2 km/h (3 Bft) 94,87 %
07.12.2016 04:00 -0,7 C -0,6 C -2,2 C 93 % 0 lf 1031,0 hPa 0,0 l/m 0,00 h 0,00 h 0 W/m 14,3 km/h (3 Bft) 96,89 %
07.12.2016 05:00 -0,6 C -0,1 C -1,7 C 93 % 0 lf 1030,3 hPa 0,0 l/m 0,00 h 0,00 h 0 W/m 19,1 km/h (3 Bft) 93,86 %
07.12.2016 06:00 -0,5 C 0,0 C -1,7 C 93 % 0 lf 1029,9 hPa 0,0 l/m 0,00 h 0,00 h 0 W/m 18,5 km/h (3 Bft) 96,13 %
07.12.2016 07:00 -0,5 C 0,0 C -1,7 C 93 % 0 lf 1030,0 hPa 0,0 l/m 0,00 h 0,00 h 0 W/m 18,2 km/h (3 Bft) 96,51 %
07.12.2016 08:00 -0,3 C 0,2 C -1,3 C 93 % 0 lf 1030,2 hPa 0,0 l/m 0,00 h 0,00 h 8 W/m 16,8 km/h (3 Bft) 96,53 %
07.12.2016 09:00 0,2 C 0,8 C -0,5 C 93 % 0 lf 1030,8 hPa 0,0 l/m 0,00 h 0,00 h 34 W/m 18,5 km/h (3 Bft) 93,75 %
07.12.2016 10:00 0,8 C 1,6 C 0,4 C 92 % 0 lf 1031,1 hPa 0,0 l/m 0,00 h 0,00 h 73 W/m 20,1 km/h (4 Bft) 96,67 %
07.12.2016 11:00 1,5 C 2,7 C 1,5 C 91 % 0 lf 1030,8 hPa 0,0 l/m 0,17 h 0,00 h 116 W/m 19,1 km/h (3 Bft) 97,31 %
07.12.2016 12:00 2,5 C 3,6 C 2,3 C 89 % 0 lf 1030,1 hPa 0,0 l/m 0,03 h 0,00 h 128 W/m 21,3 km/h (4 Bft) 94,79 %
07.12.2016 13:00 3,6 C 5,5 C 3,7 C 88 % 0 lf 1029,7 hPa 0,0 l/m 0,57 h 0,00 h 161 W/m 17,3 km/h (3 Bft) 94,16 %
07.12.2016 14:00 4,2 C 4,6 C 3,5 C 86 % 0 lf 1029,4 hPa 0,0 l/m 0,00 h 0,00 h 54 W/m 16,4 km/h (3 Bft) 97,94 %
07.12.2016 15:00 4,1 C 4,4 C 3,1 C 86 % 0 lf 1029,7 hPa 0,0 l/m 0,00 h 0,00 h 27 W/m 16,8 km/h (3 Bft) 95,88 %
07.12.2016 16:00 4,0 C 4,3 C 2,5 C 87 % 0 lf 1029,6 hPa 0,0 l/m 0,03 h 0,00 h 11 W/m 17,2 km/h (3 Bft) 95,59 %
07.12.2016 17:00 3,8 C 3,9 C 2,2 C 88 % 0 lf 1029,7 hPa 0,0 l/m 0,00 h 0,00 h 0 W/m 13,1 km/h (3 Bft) 95,58 %
07.12.2016 18:00 3,7 C 3,9 C 2,2 C 89 % 0 lf 1029,9 hPa 0,0 l/m 0,00 h 0,00 h 0 W/m 12,4 km/h (3 Bft) 95,32 %
07.12.2016 19:00 3,7 C 3,9 C 2,1 C 89 % 0 lf 1030,0 hPa 0,0 l/m 0,00 h 0,00 h 0 W/m 16,1 km/h (3 Bft) 96,86 %
07.12.2016 20:00 3,5 C 3,7 C 1,7 C 89 % 0 lf 1030,1 hPa 0,0 l/m 0,00 h 0,00 h 0 W/m 15,9 km/h (3 Bft) 95,59 %
07.12.2016 21:00 3,3 C 3,3 C 1,7 C 90 % 0 lf 1030,2 hPa 0,0 l/m 0,00 h 0,00 h 0 W/m 15,1 km/h (3 Bft) 94,23 %
07.12.2016 22:00 3,1 C 3,3 C 1,3 C 91 % 0 lf 1030,3 hPa 0,0 l/m 0,00 h 0,00 h 0 W/m 16,4 km/h (3 Bft) 97,15 %
07.12.2016 23:00 2,7 C 2,9 C 1,1 C 91 % 0 lf 1030,3 hPa 0,0 l/m 0,00 h 0,00 h 0 W/m 14,8 km/h (3 Bft) 95,80 %
08.12.2016 00:00 2,4 C 2,7 C 0,6 C 92 % 0 lf 1030,0 hPa 0,0 l/m 0,00 h 0,00 h 0 W/m 12,9 km/h (3 Bft) 94,54 %
08.12.2016 01:00 2,3 C 2,8 C 0,6 C 92 % 0 lf 1029,7 hPa 0,0 l/m 0,00 h 0,00 h 0 W/m 12,3 km/h (3 Bft) 96,37 %
08.12.2016 02:00 2,1 C 2,2 C 0,4 C 92 % 0 lf 1029,4 hPa 0,0 l/m 0,00 h 0,00 h 0 W/m 12,4 km/h (3 Bft) 96,08 %
08.12.2016 03:00 1,9 C 2,2 C 0,1 C 92 % 0 lf 1029,3 hPa 0,0 l/m 0,00 h 0,00 h 0 W/m 12,5 km/h (3 Bft) 97,37 %
08.12.2016 04:00 1,7 C 1,7 C -0,4 C 92 % 0 lf 1029,2 hPa 0,0 l/m 0,00 h 0,00 h 0 W/m 8,3 km/h (2 Bft) 94,81 %
08.12.2016 05:00 1,4 C 1,7 C -0,3 C 93 % 0 lf 1029,0 hPa 0,0 l/m 0,00 h 0,00 h 0 W/m 9,0 km/h (2 Bft) 95,80 %
08.12.2016 06:00 1,6 C 2,1 C 0,5 C 93 % 0 lf 1029,0 hPa 0,0 l/m 0,00 h 0,00 h 0 W/m 12,0 km/h (2 Bft) 94,98 %
08.12.2016 07:00 2,1 C 2,7 C 1,0 C 93 % 0 lf 1029,1 hPa 0,0 l/m 0,00 h 0,00 h 0 W/m 16,3 km/h (3 Bft) 97,65 %
08.12.2016 08:00 2,5 C 2,9 C 1,1 C 91 % 0 lf 1029,3 hPa 0,0 l/m 0,27 h 0,00 h 16 W/m 15,8 km/h (3 Bft) 96,58 %
08.12.2016 09:00 2,8 C 3,6 C 2,1 C 90 % 0 lf 1029,2 hPa 0,0 l/m 0,83 h 0,00 h 70 W/m 16,5 km/h (3 Bft) 92,67 %
08.12.2016 10:00 3,5 C 4,5 C 3,1 C 88 % 0 lf 1029,0 hPa 0,0 l/m 0,40 h 0,00 h 104 W/m 17,7 km/h (3 Bft) 97,50 %
08.12.2016 11:00 4,3 C 5,2 C 4,0 C 85 % 0 lf 1028,7 hPa 0,0 l/m 0,00 h 0,00 h 98 W/m 14,4 km/h (3 Bft) 97,30 %
08.12.2016 12:00 5,2 C 7,8 C 5,4 C 84 % 0 lf 1027,9 hPa 0,0 l/m 0,70 h 0,00 h 213 W/m 14,1 km/h (3 Bft) 94,22 %
08.12.2016 13:00 7,0 C 8,6 C 6,4 C 79 % 0 lf 1027,4 hPa 0,0 l/m 0,47 h 0,00 h 157 W/m 12,2 km/h (2 Bft) 97,72 %
08.12.2016 14:00 7,6 C 9,3 C 6,4 C 79 % 0 lf 1027,1 hPa 0,0 l/m 0,57 h 0,00 h 109 W/m 10,7 km/h (2 Bft) 95,72 %
08.12.2016 15:00 7,7 C 7,7 C 5,4 C 78 % 0 lf 1026,8 hPa 0,0 l/m 0,23 h 0,00 h 40 W/m 8,3 km/h (2 Bft) 96,37 %
08.12.2016 16:00 6,5 C 6,0 C 3,2 C 80 % 0 lf 1026,6 hPa 0,0 l/m 0,00 h 0,00 h 11 W/m 11,2 km/h (2 Bft) 95,51 %
08.12.2016 17:00 5,1 C 4,8 C 2,2 C 83 % 0 lf 1026,4 hPa 0,0 l/m 0,00 h 0,00 h 0 W/m 10,4 km/h (2 Bft) 95,73 %
08.12.2016 18:00 4,1 C 3,8 C 1,1 C 85 % 0 lf 1026,8 hPa 0,0 l/m 0,00 h 0,00 h 0 W/m 8,8 km/h (2 Bft) 96,14 %
08.12.2016 19:00 3,7 C 4,0 C 2,1 C 87 % 0 lf 1026,6 hPa 0,0 l/m 0,00 h 0,00 h 0 W/m 7,8 km/h (2 Bft) 98,16 %
08.12.2016 20:00 4,2 C 5,1 C 3,3 C 87 % 0 lf 1027,0 hPa 0,0 l/m 0,00 h 0,00 h 0 W/m 8,7 km/h (2 Bft) 92,17 %
08.12.2016 21:00 5,4 C 5,6 C 3,9 C 87 % 8 lf 1027,2 hPa 0,0 l/m 0,00 h 0,23 h 0 W/m 6,7 km/h (2 Bft) 98,22 %
08.12.2016 22:00 6,4 C 6,9 C 4,8 C 90 % 6 lf 1027,3 hPa 0,0 l/m 0,00 h 0,00 h 0 W/m 17,7 km/h (3 Bft) 97,15 %
08.12.2016 23:00 7,5 C 7,5 C 5,7 C 90 % 9 lf 1027,2 hPa 0,0 l/m 0,00 h 0,10 h 0 W/m 21,9 km/h (4 Bft) 94,73 %
09.12.2016 00:00 7,7 C 7,8 C 6,0 C 90 % 0 lf 1027,4 hPa 0,0 l/m 0,00 h 0,00 h 0 W/m 17,6 km/h (3 Bft) 95,38 %
09.12.2016 01:00 7,8 C 8,3 C 6,7 C 89 % 0 lf 1027,2 hPa 0,2 l/m 0,00 h 0,00 h 0 W/m 18,2 km/h (3 Bft) 97,14 %
09.12.2016 02:00 8,0 C 8,3 C 6,7 C 89 % 0 lf 1027,1 hPa 0,0 l/m 0,00 h 0,00 h 0 W/m 18,5 km/h (3 Bft) 95,45 %
09.12.2016 03:00 8,2 C 8,3 C 6,7 C 90 % 0 lf 1027,4 hPa 0,0 l/m 0,00 h 0,00 h 0 W/m 21,6 km/h (4 Bft) 98,08 %
09.12.2016 04:00 8,3 C 8,3 C 6,7 C 90 % 0 lf 1027,4 hPa 0,0 l/m 0,00 h 0,00 h 0 W/m 18,2 km/h (3 Bft) 94,66 %
09.12.2016 05:00 8,3 C 8,3 C 7,0 C 90 % 0 lf 1027,4 hPa 0,0 l/m 0,00 h 0,00 h 0 W/m 15,7 km/h (3 Bft) 95,30 %
09.12.2016 06:00 8,3 C 8,4 C 7,0 C 90 % 0 lf 1027,5 hPa 0,0 l/m 0,00 h 0,00 h 0 W/m 15,1 km/h (3 Bft) 98,27 %
09.12.2016 07:00 8,4 C 8,5 C 6,9 C 91 % 0 lf 1027,6 hPa 0,0 l/m 0,00 h 0,00 h 0 W/m 15,4 km/h (3 Bft) 95,30 %
09.12.2016 08:00 8,2 C 8,3 C 6,8 C 92 % 0 lf 1027,8 hPa 0,0 l/m 0,00 h 0,00 h 7 W/m 11,1 km/h (2 Bft) 94,30 %
09.12.2016 09:00 8,3 C 8,7 C 7,2 C 92 % 0 lf 1028,0 hPa 0,0 l/m 0,00 h 0,00 h 17 W/m 10,5 km/h (2 Bft) 96,08 %
09.12.2016 10:00 8,6 C 9,0 C 7,4 C 93 % 0 lf 1028,2 hPa 0,0 l/m 0,00 h 0,00 h 24 W/m 10,8 km/h (2 Bft) 96,86 %
09.12.2016 11:00 8,9 C 9,8 C 8,4 C 94 % 0 lf 1028,0 hPa 0,0 l/m 0,00 h 0,00 h 50 W/m 10,0 km/h (2 Bft) 94,94 %
09.12.2016 12:00 9,6 C 11,2 C 9,9 C 91 % 0 lf 1027,8 hPa 0,0 l/m 0,03 h 0,00 h 92 W/m 11,8 km/h (2 Bft) 96,32 %
09.12.2016 13:00 11,0 C 13,0 C 11,0 C 82 % 0 lf 1027,3 hPa 0,0 l/m 0,27 h 0,00 h 118 W/m 13,5 km/h (3 Bft) 95,58 %
09.12.2016 14:00 12,0 C 12,7 C 10,9 C 77 % 0 lf 1026,9 hPa 0,0 l/m 0,00 h 0,00 h 48 W/m 13,3 km/h (3 Bft) 97,72 %
09.12.2016 15:00 12,1 C 12,8 C 10,7 C 75 % 0 lf 1026,8 hPa 0,0 l/m 0,50 h 0,00 h 57 W/m 11,6 km/h (2 Bft) 94,45 %
09.12.2016 16:00 12,0 C 12,0 C 9,2 C 74 % 0 lf 1026,7 hPa 0,0 l/m 0,23 h 0,00 h 13 W/m 10,2 km/h (2 Bft) 95,94 %
09.12.2016 17:00 11,3 C 10,8 C 7,3 C 76 % 0 lf 1026,6 hPa 0,0 l/m 0,00 h 0,00 h 5 W/m 10,7 km/h (2 Bft) 97,08 %
09.12.2016 18:00 10,2 C 9,4 C 5,3 C 78 % 0 lf 1026,5 hPa 0,0 l/m 0,00 h 0,00 h 5 W/m 8,7 km/h (2 Bft) 97,16 %
09.12.2016 19:00 9,3 C 9,3 C 6,1 C 80 % 0 lf 1026,1 hPa 0,0 l/m 0,00 h 0,00 h 5 W/m 11,3 km/h (2 Bft) 93,52 %
09.12.2016 20:00 9,3 C 9,3 C 6,5 C 80 % 0 lf 1026,2 hPa 0,0 l/m 0,00 h 0,00 h 5 W/m 11,2 km/h (2 Bft) 97,93 %
09.12.2016 21:00 9,0 C 8,7 C 5,3 C 82 % 0 lf 1026,1 hPa 0,0 l/m 0,00 h 0,00 h 5 W/m 8,9 km/h (2 Bft) 96,37 %
09.12.2016 22:00 8,4 C 7,9 C 4,2 C 85 % 0 lf 1025,7 hPa 0,0 l/m 0,00 h 0,00 h 5 W/m 7,6 km/h (2 Bft) 96,44 %
09.12.2016 23:00 7,0 C 6,1 C 3,1 C 86 % 0 lf 1025,6 hPa 0,0 l/m 0,00 h 0,00 h 5 W/m 8,5 km/h (2 Bft) 93,81 %
10.12.2016 00:00 5,7 C 5,4 C 3,1 C 90 % 0 lf 1025,2 hPa 0,0 l/m 0,00 h 0,00 h 5 W/m 7,8 km/h (2 Bft) 97,85 %
10.12.2016 01:00 5,0 C 4,9 C 2,5 C 92 % 1 lf 1024,9 hPa 0,0 l/m 0,00 h 0,00 h 5 W/m 7,3 km/h (2 Bft) 95,94 %
10.12.2016 02:00 4,5 C 4,4 C 2,3 C 93 % 1 lf 1024,7 hPa 0,0 l/m 0,00 h 0,00 h 5 W/m 9,0 km/h (2 Bft) 95,73 %
10.12.2016 03:00 4,2 C 4,2 C 1,9 C 94 % 1 lf 1024,2 hPa 0,0 l/m 0,00 h 0,00 h 5 W/m 7,5 km/h (2 Bft) 95,87 %
10.12.2016 04:00 3,8 C 3,8 C 0,9 C 94 % 3 lf 1023,4 hPa 0,0 l/m 0,00 h 0,00 h 0 W/m 5,3 km/h (1 Bft) 95,02 %
10.12.2016 05:00 3,7 C 4,0 C 1,0 C 95 % 4 lf 1023,0 hPa 0,0 l/m 0,00 h 0,00 h 0 W/m 6,2 km/h (2 Bft) 97,08 %
10.12.2016 06:00 3,9 C 4,4 C 1,8 C 95 % 2 lf 1022,8 hPa 0,0 l/m 0,00 h 0,00 h 0 W/m 7,9 km/h (2 Bft) 97,09 %
10.12.2016 07:00 4,5 C 5,1 C 2,2 C 96 % 1 lf 1023,2 hPa 0,0 l/m 0,00 h 0,00 h 0 W/m 7,4 km/h (2 Bft) 94,09 %
10.12.2016 08:00 5,4 C 6,1 C 3,5 C 96 % 0 lf 1023,4 hPa 0,0 l/m 0,17 h 0,00 h 12 W/m 12,1 km/h (2 Bft) 96,37 %
10.12.2016 09:00 6,2 C 7,2 C 4,9 C 95 % 0 lf 1023,3 hPa 0,0 l/m 0,27 h 0,00 h 51 W/m 11,7 km/h (2 Bft) 97,01 %
10.12.2016 10:00 7,5 C 9,6 C 7,2 C 90 % 0 lf 1023,2 hPa 0,0 l/m 0,63 h 0,00 h 115 W/m 13,3 km/h (3 Bft) 94,10 %
10.12.2016 11:00 8,7 C 13,1 C 7,9 C 86 % 0 lf 1023,3 hPa 0,0 l/m 0,87 h 0,00 h 227 W/m 19,0 km/h (3 Bft) 96,58 %
10.12.2016 12:00 9,7 C 12,6 C 9,2 C 83 % 0 lf 1023,1 hPa 0,0 l/m 0,97 h 0,00 h 228 W/m 18,9 km/h (3 Bft) 96,87 %
10.12.2016 13:00 9,9 C 11,8 C 9,0 C 83 % 0 lf 1022,9 hPa 0,0 l/m 0,37 h 0,00 h 138 W/m 18,0 km/h (3 Bft) 94,45 %
10.12.2016 14:00 9,4 C 9,8 C 8,2 C 86 % 0 lf 1022,3 hPa 0,0 l/m 0,00 h 0,00 h 36 W/m 17,8 km/h (3 Bft) 95,95 %
10.12.2016 15:00 9,0 C 9,0 C 7,5 C 89 % 0 lf 1021,8 hPa 0,0 l/m 0,00 h 0,00 h 15 W/m 12,7 km/h (3 Bft) 96,23 %
10.12.2016 16:00 8,8 C 8,9 C 7,3 C 91 % 2 lf 1021,7 hPa 0,0 l/m 0,00 h 0,00 h 6 W/m 13,5 km/h (3 Bft) 94,73 %
10.12.2016 17:00 8,8 C 8,9 C 7,2 C 93 % 3 lf 1021,5 hPa 0,0 l/m 0,00 h 0,00 h 5 W/m 13,7 km/h (3 Bft) 98,08 %
10.12.2016 18:00 8,9 C 8,9 C 7,2 C 94 % 15 lf 1021,1 hPa 0,0 l/m 0,00 h 0,03 h 5 W/m 12,3 km/h (3 Bft) 93,92 %
10.12.2016 19:00 8,9 C 8,9 C 7,2 C 96 % 15 lf 1020,5 hPa 0,0 l/m 0,00 h 0,00 h 5 W/m 12,6 km/h (3 Bft) 96,32 %
10.12.2016 20:00 8,9 C 8,9 C 7,2 C 97 % 15 lf 1019,8 hPa 0,0 l/m 0,00 h 0,00 h 5 W/m 16,0 km/h (3 Bft) 97,89 %
10.12.2016 21:00 9,1 C 9,4 C 7,7 C 97 % 14 lf 1019,3 hPa 0,0 l/m 0,00 h 0,00 h 5 W/m 18,1 km/h (3 Bft) 95,55 %
10.12.2016 22:00 9,3 C 9,6 C 7,8 C 97 % 5 lf 1018,5 hPa 0,0 l/m 0,00 h 0,00 h 5 W/m 21,3 km/h (4 Bft) 95,01 %
10.12.2016 23:00 9,4 C 9,4 C 7,8 C 96 % 0 lf 1017,8 hPa 0,0 l/m 0,00 h 0,00 h 5 W/m 20,5 km/h (4 Bft) 97,05 %
11.12.2016 00:00 9,5 C 10,0 C 8,2 C 93 % 0 lf 1016,7 hPa 0,0 l/m 0,00 h 0,00 h 5 W/m 22,2 km/h (4 Bft) 95,45 %
11.12.2016 01:00 10,1 C 10,6 C 8,8 C 87 % 0 lf 1015,5 hPa 0,0 l/m 0,00 h 0,07 h 5 W/m 25,2 km/h (4 Bft) 96,73 %
11.12.2016 02:00 10,1 C 9,5 C 7,7 C 88 % 12 lf 1014,9 hPa 0,8 l/m 0,00 h 0,83 h 5 W/m 31,0 km/h (5 Bft) 93,81 %
11.12.2016 03:00 9,4 C 8,9 C 7,2 C 93 % 15 lf 1014,2 hPa 1,2 l/m 0,00 h 1,00 h 5 W/m 40,7 km/h (6 Bft) 97,01 %
11.12.2016 04:00 9,3 C 8,8 C 7,7 C 95 % 15 lf 1014,3 hPa 0,0 l/m 0,00 h 0,90 h 5 W/m 43,4 km/h (6 Bft) 96,36 %
11.12.2016 05:00 8,5 C 8,0 C 6,9 C 93 % 12 lf 1016,3 hPa 0,0 l/m 0,00 h 0,30 h 5 W/m 31,8 km/h (5 Bft) 96,79 %
11.12.2016 06:00 8,1 C 7,8 C 6,7 C 92 % 0 lf 1017,6 hPa 0,0 l/m 0,00 h 0,00 h 5 W/m 25,0 km/h (4 Bft) 94,00 %
11.12.2016 07:00 7,9 C 7,5 C 5,9 C 93 % 14 lf 1018,8 hPa 0,0 l/m 0,00 h 0,13 h 5 W/m 20,0 km/h (4 Bft) 96,01 %
11.12.2016 08:00 7,7 C 7,8 C 6,1 C 94 % 2 lf 1019,2 hPa 0,0 l/m 0,00 h 0,03 h 7 W/m 16,4 km/h (3 Bft) 97,08 %
11.12.2016 09:00 7,7 C 8,1 C 6,6 C 94 % 0 lf 1019,8 hPa 0,0 l/m 0,00 h 0,00 h 25 W/m 20,6 km/h (4 Bft) 97,65 %
11.12.2016 10:00 8,0 C 9,1 C 7,1 C 94 % 0 lf 1020,6 hPa 0,0 l/m 0,50 h 0,00 h 105 W/m 23,6 km/h (4 Bft) 93,16 %
11.12.2016 11:00 8,3 C 8,9 C 7,4 C 92 % 0 lf 1020,7 hPa 0,0 l/m 0,00 h 0,07 h 58 W/m 20,9 km/h (4 Bft) 97,13 %
11.12.2016 12:00 8,5 C 9,4 C 7,9 C 92 % 0 lf 1020,7 hPa 0,0 l/m 0,03 h 0,00 h 81 W/m 20,8 km/h (4 Bft) 96,91 %
11.12.2016 13:00 8,8 C 10,1 C 8,4 C 90 % 0 lf 1020,8 hPa 0,0 l/m 0,30 h 0,00 h 119 W/m 18,3 km/h (3 Bft) 95,31 %
11.12.2016 14:00 9,2 C 10,3 C 9,0 C 89 % 0 lf 1020,6 hPa 0,0 l/m 0,83 h 0,00 h 134 W/m 20,8 km/h (4 Bft) 96,29 %
11.12.2016 15:00 8,9 C 9,2 C 7,7 C 88 % 0 lf 1020,6 hPa 0,0 l/m 0,30 h 0,00 h 48 W/m 21,3 km/h (4 Bft) 95,75 %
11.12.2016 16:00 8,2 C 8,1 C 6,5 C 90 % 0 lf 1020,9 hPa 0,0 l/m 0,00 h 0,00 h 7 W/m 19,1 km/h (3 Bft) 96,13 %
11.12.2016 17:00 7,9 C 7,8 C 6,1 C 90 % 0 lf 1020,8 hPa 0,0 l/m 0,00 h 0,00 h 5 W/m 16,8 km/h (3 Bft) 97,01 %
11.12.2016 18:00 7,6 C 7,6 C 5,9 C 92 % 0 lf 1020,9 hPa 0,0 l/m 0,00 h 0,00 h 5 W/m 14,7 km/h (3 Bft) 93,63 %
11.12.2016 19:00 7,3 C 7,2 C 5,8 C 93 % 0 lf 1021,3 hPa 0,0 l/m 0,00 h 0,00 h 5 W/m 15,7 km/h (3 Bft) 95,80 %
11.12.2016 20:00 7,3 C 7,4 C 5,9 C 93 % 1 lf 1021,5 hPa 0,0 l/m 0,00 h 0,13 h 5 W/m 16,2 km/h (3 Bft) 98,29 %
11.12.2016 21:00 7,4 C 7,3 C 5,8 C 94 % 13 lf 1021,4 hPa 0,0 l/m 0,00 h 0,37 h 5 W/m 16,4 km/h (3 Bft) 94,37 %
11.12.2016 22:00 7,5 C 7,5 C 5,9 C 94 % 10 lf 1021,5 hPa 0,0 l/m 0,00 h 0,17 h 5 W/m 18,4 km/h (3 Bft) 96,01 %
11.12.2016 23:00 7,6 C 7,8 C 6,1 C 94 % 9 lf 1021,8 hPa 0,0 l/m 0,00 h 0,13 h 5 W/m 16,6 km/h (3 Bft) 95,87 %
Min-Datum _ 06.12.16 05.12.16 05.12.16 09.12.16 05.12.16 11.12.16 - - - - 05.12.16 10.12.16
_ Min-Zeit 08:16 20:14 19:52 15:50 00:00 03:26 - - - - 19:40 10:06
Minimum _ -2,2 C -2,2 C -4,4 C 74 % 0 lf 1014,0 hPa - - - - 0,0 km/h (0 Bft) 55,56 %
Max-Datum _ 09.12.16 10.12.16 09.12.16 10.12.16 08.12.16 07.12.16 11.12.16 05.12.16 08.12.16 10.12.16 11.12.16 05.12.16
_ Max-Zeit 15:56 11:30 13:54 20:08 21:30 00:24 03:04 09:36 21:28 12:26 04:10 00:05
Maximum _ 12,3 C 15,6 C 12,2 C 97 % 15 lf 1031,5 hPa 1,2 l/m 0,03 h 0,03 h 343 W/m 62,8 km/h
W (8 Bft)
100,00 %
Durchschnitt _ 4,4 C 4,9 C 2,7 C 89 % 1 lf 1026,0 hPa #2,2 l/m #20:48 h #4:30 h 56 W/m 14,4 km/h (3 Bft) 95,93 %
© 2016 W. Hausmann